DW7281 Weather Reports


Display with metric or nautical units.
time (UTC)temp
F
wind
direction
speed
MPH
gust
MPH
rain 1hr
in
rain 24hr
in
rain mn
in
humidity
%
barometer
mb
20260906133120 58 40 0.0 4.0 0.00 0.00 0.00 68 1023.9
20260906131613 58 0 0.0 0.0 0.00 0.00 0.00 47 1023.7
20260906130104 59 0 0.0 0.0 0.00 0.00 0.00 45 1023.8
20260906124554 60 0 0.0 10.0 0.00 0.00 0.00 45 1023.8
20260906123056 61 0 3.0 8.0 0.00 0.00 0.00 46 1023.4
20260906121553 61 134 3.0 12.0 0.00 0.00 0.00 34 1023.3
20260906120057 62 153 3.0 14.0 0.00 0.00 0.00 30 1023.1
20260906114556 62 150 4.0 10.0 0.00 0.00 0.00 29 1023.1
20260906113055 62 152 4.0 9.0 0.00 0.00 0.00 29 1023.1
20260906111553 62 161 2.0 9.0 0.00 0.00 0.00 29 1023.0
20260906110050 62 161 3.0 10.0 0.00 0.00 0.00 30 1023.1
20260906104557 62 169 4.0 8.0 0.00 0.00 0.00 29 1022.9
20260906103054 62 0 0.0 1.0 0.00 0.00 0.00 29 1022.6
20260906101558 63 0 0.0 0.0 0.00 0.00 0.00 28 1022.6
20260906100050 64 0 2.0 7.0 0.00 0.00 0.00 27 1022.5
20260906094602 65 179 1.0 6.0 0.00 0.00 0.00 26 1022.4
20260906093059 65 0 2.0 10.0 0.00 0.00 0.00 26 1022.1
20260906091551 66 185 0.0 1.0 0.00 0.00 0.00 26 1022.0
20260906090110 67 0 0.0 1.0 0.00 0.00 0.00 26 1021.9
20260906084558 68 0 0.0 8.0 0.00 0.00 0.00 26 1021.7
20260906083101 69 173 0.0 7.0 0.00 0.00 0.00 26 1021.5
20260906081601 70 165 1.0 9.0 0.00 0.00 0.00 26 1021.2
20260906074600 73 187 3.0 12.0 0.00 0.00 0.00 26 1020.9
20260906073100 74 229 5.0 12.0 0.00 0.00 0.00 27 1020.6
20260906071555 75 178 2.0 12.0 0.00 0.00 0.00 29 1020.3
20260906070058 76 163 6.0 17.0 0.00 0.00 0.00 29 1020.3
20260906064554 77 168 3.0 14.0 0.00 0.00 0.00 31 1020.1
20260906063057 78 186 7.0 17.0 0.00 0.00 0.00 32 1019.8
20260906061607 79 212 7.0 23.0 0.00 0.00 0.00 33 1019.8
20260906054602 80 184 7.0 18.0 0.00 0.00 0.00 32 1019.4
20260906053056 81 160 7.0 22.0 0.00 0.00 0.00 32 1019.5
20260906051558 82 191 6.0 17.0 0.00 0.00 0.00 32 1019.5
20260906050055 82 221 7.0 21.0 0.00 0.00 0.00 31 1019.4
20260906044549 83 171 8.0 17.0 0.00 0.00 0.00 31 1019.2
20260906043048 83 209 7.0 20.0 0.00 0.00 0.00 31 1019.2
20260906041553 83 188 8.0 21.0 0.00 0.00 0.00 31 1019.3
20260906040053 83 205 6.0 25.0 0.00 0.00 0.00 33 1019.3
20260906034558 84 193 6.0 19.0 0.00 0.00 0.00 33 1019.3
20260906033142 84 177 8.0 20.0 0.00 0.00 0.00 33 1019.5
20260906031558 84 187 9.0 18.0 0.00 0.00 0.00 32 1019.6
20260906030056 84 177 8.0 23.0 0.00 0.00 0.00 32 1019.8
20260906024555 85 189 6.0 14.0 0.00 0.00 0.00 32 1019.9
20260906023052 84 206 8.0 18.0 0.00 0.00 0.00 32 1020.1
20260906021600 84 226 6.0 15.0 0.00 0.00 0.00 33 1020.3
20260906020056 83 195 6.0 15.0 0.00 0.00 0.00 34 1020.5
20260906014603 83 212 9.0 19.0 0.00 0.00 0.00 33 1020.7
20260906013050 82 197 6.0 16.0 0.00 0.00 0.00 35 1020.9
20260906011607 82 173 5.0 18.0 0.00 0.00 0.00 34 1021.2
20260906010057 82 202 1.0 13.0 0.00 0.00 0.00 38 1021.2
20260906004550 81 225 6.0 14.0 0.00 0.00 0.00 39 1021.3
20260906003058 80 207 7.0 14.0 0.00 0.00 0.00 41 1021.6
20260906001600 78 198 7.0 14.0 0.00 0.00 0.00 42 1021.8
20260906000100 77 190 6.0 13.0 0.00 0.00 0.00 44 1021.9
20260905234551 76 198 6.0 12.0 0.00 0.00 0.00 46 1022.1
20260905233114 75 226 6.0 13.0 0.00 0.00 0.00 47 1022.1
20260905231557 74 221 5.0 15.0 0.00 0.00 0.00 49 1022.0
20260905230051 73 214 8.0 14.0 0.00 0.00 0.00 50 1022.1
20260905224611 72 227 8.0 13.0 0.00 0.00 0.00 53 1022.4
20260905223100 71 225 6.0 15.0 0.00 0.00 0.00 56 1022.2
20260905221601 70 209 5.0 14.0 0.00 0.00 0.00 57 1022.1
20260905220056 69 229 5.0 13.0 0.00 0.00 0.00 58 1022.0
20260905214555 68 257 5.0 15.0 0.00 0.00 0.00 58 1021.9
20260905213101 67 234 6.0 12.0 0.00 0.00 0.00 59 1021.9
20260905211557 66 219 4.0 9.0 0.00 0.00 0.00 62 1022.0
20260905210056 64 210 3.0 14.0 0.00 0.00 0.00 63 1021.8
20260905204554 64 256 4.0 9.0 0.00 0.00 0.00 64 1021.5
20260905203059 64 223 2.0 8.0 0.00 0.00 0.00 64 1021.4
20260905201607 63 0 1.0 9.0 0.00 0.00 0.00 64 1021.1
20260905200100 63 246 3.0 10.0 0.00 0.00 0.00 63 1021.0
20260905194555 64 239 2.0 10.0 0.00 0.00 0.00 63 1020.8
20260905193100 64 253 3.0 9.0 0.00 0.00 0.00 63 1020.8
20260905191557 65 0 1.0 9.0 0.00 0.00 0.00 60 1020.8
20260905190112 65 236 1.0 8.0 0.00 0.00 0.00 58 1020.7
20260905184608 66 0 0.0 9.0 0.00 0.00 0.00 57 1020.9
20260905183057 66 0 0.0 8.0 0.00 0.00 0.00 57 1021.0
20260905181555 66 255 3.0 10.0 0.00 0.00 0.00 57 1021.0
20260905180049 66 224 2.0 10.0 0.00 0.00 0.00 57 1021.0
20260905174559 67 210 2.0 9.0 0.00 0.00 0.00 57 1020.9
20260905173054 67 0 3.0 7.0 0.00 0.00 0.00 57 1020.5
20260905171553 67 226 1.0 8.0 0.00 0.00 0.00 57 1020.5
20260905170049 66 0 0.0 5.0 0.00 0.00 0.00 58 1020.4
20260905164555 66 220 2.0 7.0 0.00 0.00 0.00 58 1020.7
20260905163100 66 0 0.0 8.0 0.00 0.00 0.00 58 1020.5
20260905161558 66 262 0.0 5.0 0.00 0.00 0.00 59 1020.4
20260905160058 66 244 1.0 5.0 0.00 0.00 0.00 60 1020.6
20260905154554 65 0 0.0 6.0 0.00 0.00 0.00 60 1020.8
20260905153057 65 0 2.0 5.0 0.00 0.00 0.00 60 1020.7
20260905151553 66 0 1.0 5.0 0.00 0.00 0.00 60 1021.0
20260905150055 66 259 0.0 5.0 0.00 0.00 0.00 60 1021.2
20260905144555 66 255 1.0 8.0 0.00 0.00 0.00 60 1021.1
20260905143056 67 246 1.0 9.0 0.00 0.00 0.00 59 1021.4
20260905141619 67 250 0.0 10.0 0.00 0.00 0.00 58 1021.4
20260905140056 67 0 1.0 8.0 0.00 0.00 0.00 57 1021.4
20260905134553 67 280 1.0 11.0 0.00 0.00 0.00 57 1021.4